Погода в Велигаме

Шри-Ланка     5°58′47″N   80°25′25″E
темп.,
°C
ветер,
м/с
пор.,
м/с
влажн.,
%
обл.,
%
осадки,
мм/ч
давл.,
гПа
погр.,
м
9 декабря, чт
чт923:30+24св1291100 1.9 101291
02:30+24всв249495 0.1 1010165
05:30+23всв379437 1.1 1010241
08:30+26всв498246 0.1 1013585
11:30+31в565945 0.1 10121530
14:30+30вюв675839 0.0 10091296
17:30+27в47755 0.1 1010446
20:30+24всв388561 0.0 1013339
10 декабря, пт
пт1023:30+23всв3108841 0.0 1013366
02:30+21всв359175 0.0 1010166
05:30+21св238580 0.0 1011108
08:30+26св376594 0.0 1013417
11:30+31всв475625 0.0 10111377
14:30+31в565597 0.0 10081715
17:30+26всв248378 1.2 1010196
20:30+24с239153 1.3 1012131
11 декабря, сб
сб1123:30+23всв3693100 1.3 1012252
02:30+22св239425 0.0 1009128
05:30+22св229310 0.0 101067
08:30+26св117922 0.0 1013245
11:30+31в35536 0.0 10111342
14:30+31вюв466146 0.4 10081016
17:30+26всв368780 3.4 1009256
20:30+24св2492100 1.3 1012185
12 декабря, вс
вс1223:30+23св2494100 1.3 1012158
02:30+23св229439 0.0 101084
05:30+23св229299 0.1 101070
08:30+26св2381100 0.1 1013248
11:30+29всв3762100 0.1 10111106
14:30+27вюв3681100 1.0 1008460
17:30+25в3690100 3.3 1009251
20:30+24всв379399 0.6 1012292
13 декабря, пн
пн1323:30+23всв3894100 0.6 1011295
02:30+23всв389497 0.0 1009281
05:30+22всв359333 0.2 1010212
08:30+26всв368287 0.1 1012427
11:30+31в465855 0.1 10101447
14:30+30в456688 0.3 1008762
17:30+26св1288100 4.4 1009101
20:30+24с119192 2.1 101268